Weather in Treskino

Russia / Penza Oblast     52°41′19″N   44°39′01″E
temp.,
°C
wind,
m/s
gust,
m/s
humid.,
%
clouds,
%
prec.,
mm/h
press.,
hPa
HPBL,
m
7 march, sun
sun700:00−9wnw129799 1.4 101458
03:00−11nw469795 1.5 1014119
06:00−15w349762 0.0 101545
09:00−13wsw479650 0.0 1015237
12:00−8sw61192100 0.0 1013553
15:00−6sw81486100 0.1 1009926
18:00−5sw101692100 0.5 10061052
21:00−4sw101981100 0.8 10031122
8 march, mon
mon800:00−4sw111892100 0.7 999984
03:00−3wsw111793100 1.3 999930
06:00−8wsw5149060 0.1 1001378
09:00−7wsw6138837 0.1 1003538
12:00−4wsw698037 0.0 10031046
15:00−2sw6108869 0.3 10031048
18:00−5wsw4109072 0.3 1003261
21:00−8w5109360 0.4 1005283
9 march, tue
tue900:00−12w459529 0.0 100786
03:00−15wnw349615 0.0 100943
06:00−17wnw339827 0.0 101122
09:00−14wnw359529 0.0 1012140
12:00−10wnw349279 0.0 1012286
15:00−10wnw459280 0.0 1013415
18:00−13wnw369699 0.1 1013102
21:00−13wnw359699 0.1 1016124
10 march, wed
wed1000:00−15nw489689 0.1 1017191
03:00−18nw349987 0.1 101855
06:00−21nw469978 0.0 1020112
09:00−20nw489785 0.1 1021269
12:00−18nw5791100 0.0 1023448
15:00−17nw5790100 0.1 1023589
18:00−21nw469698 0.0 102496
21:00−24nnw349866 0.0 102741
11 march, thu
thu1100:00−26nnw34990 0.0 102833
03:00−27nw33980 0.0 102920
06:00−27wnw33950 0.0 103023
09:00−22wnw35910 0.0 1030177
12:00−17wnw46860 0.0 1030266
15:00−16w47880 0.0 1030297
18:00−19w34930 0.0 103045
21:00−21wsw34920 0.0 103233